Date,TemperatureHighF,TemperatureAvgF,TemperatureLowF,DewpointHighF,DewpointAvgF,DewpointLowF,HumidityHigh,HumidityAvg,HumidityLow,PressureMaxIn,PressureMinIn,WindSpeedMaxMPH,WindSpeedAvgMPH,GustSpeedMaxMPH,PrecipitationSumIn
2013-1-1,35,22,9,16,8,-5,78,55,36,30.19,30.04,29,7,29,0.00
2013-1-2,30,21,8,1,-5,-17,46,32,23,30.25,30.16,25,9,25,0.00
2013-1-3,40,27,14,9,1,-10,35,32,27,30.25,30.13,20,8,20,0.00
2013-1-4,45,30,18,15,6,0,48,36,21,30.13,30.07,20,6,20,0.00
2013-1-5,38,22,13,11,5,-3,71,47,29,30.22,30.10,16,6,16,0.00
2013-1-6,45,30,20,13,9,4,64,41,25,30.10,29.89,14,5,14,0.00
2013-1-7,43,30,15,17,10,4,70,44,30,29.95,29.75,15,5,15,0.00
2013-1-8,42,33,21,17,11,5,56,39,29,30.04,29.78,27,6,27,0.00
2013-1-9,44,35,22,20,16,11,77,48,33,30.04,29.78,26,8,26,0.00
2013-1-10,49,28,11,25,16,8,96,65,31,29.78,29.60,20,6,20,0.00
2013-1-11,11,4,1,8,1,-2,88,88,88,29.95,29.63,27,12,27,0.00
2013-1-12,10,3,-5,6,0,-8,88,88,88,29.98,29.92,13,4,14,0.00
2013-1-13,23,3,-7,9,-8,-23,88,63,41,30.04,29.98,14,5,14,0.00
2013-1-14,18,5,-4,10,-14,-21,81,39,34,30.01,29.92,16,5,16,0.00
2013-1-15,41,22,9,22,13,5,91,71,41,30.13,29.95,9,3,9,0.00
2013-1-16,43,30,16,20,11,7,80,49,29,30.31,30.13,19,5,19,0.00
2013-1-17,52,33,24,19,9,4,49,38,22,30.34,30.10,12,6,12,0.00
2013-1-18,59,41,25,16,7,1,40,25,15,30.10,29.98,29,8,29,0.00
2013-1-19,54,33,22,16,7,1,47,34,16,30.22,30.07,17,5,17,0.00
2013-1-20,40,22,14,17,12,4,93,68,28,30.31,30.13,17,4,17,0.00
2013-1-21,51,32,19,16,10,1,66,41,24,30.19,30.01,10,4,10,0.00
2013-1-22,53,34,21,17,6,-2,37,31,16,30.10,30.04,10,5,10,0.00
2013-1-23,48,38,27,17,9,3,36,30,22,30.13,29.98,23,5,23,0.00
2013-1-24,50,38,22,19,13,8,59,37,22,30.10,29.92,38,6,38,0.00
2013-1-25,50,37,25,23,15,6,47,41,34,30.10,29.95,24,8,24,0.00
2013-1-26,52,38,32,25,20,16,60,48,35,29.98,29.78,20,4,20,0.00
2013-1-27,38,27,21,26,21,6,93,78,45,29.83,29.78,19,7,19,0.00
2013-1-28,34,20,11,13,5,-4,74,52,41,29.83,29.75,15,6,15,0.00
2013-1-29,20,13,-5,12,1,-14,81,60,39,30.01,29.72,22,6,22,0.00
2013-1-30,33,22,8,23,12,-4,94,65,47,29.95,29.80,25,6,25,0.00
2013-1-31,34,23,15,23,15,9,93,74,51,30.07,29.95,22,5,22,0.00
2013-2-1,41,28,19,19,13,5,69,53,38,30.22,30.01,19,6,19,0.00
2013-2-2,48,28,15,18,9,2,61,45,28,30.31,30.19,16,6,17,0.00
2013-2-3,51,32,23,18,9,3,51,39,24,30.19,29.95,16,5,16,0.00
2013-2-4,47,34,24,19,13,6,63,43,29,29.95,29.86,13,4,13,0.00
2013-2-5,54,32,22,22,15,9,68,49,29,29.98,29.80,15,5,15,0.00
2013-2-6,50,30,18,23,11,2,76,45,30,30.07,29.83,17,5,17,0.00
2013-2-7,37,27,17,15,5,-4,56,40,32,30.07,29.92,17,8,17,0.00
2013-2-8,36,28,19,13,8,3,66,44,33,29.95,29.89,13,5,13,0.00
2013-2-9,34,25,17,23,14,7,94,66,41,29.89,29.78,22,5,22,0.00
2013-2-10,22,16,-4,20,6,-17,93,67,43,30.04,29.89,28,10,28,0.00
2013-2-11,28,13,-3,9,-1,-16,73,53,33,30.01,29.92,23,7,23,0.00
2013-2-12,42,24,11,14,7,-2,73,49,31,30.04,29.92,17,6,17,0.00
2013-2-13,44,32,22,23,14,8,76,48,33,30.07,29.92,30,7,30,0.00
2013-2-14,32,21,16,23,15,7,94,78,43,30.25,30.07,26,7,26,0.00
2013-2-15,44,28,19,20,12,6,81,52,36,30.28,30.16,28,7,28,0.00
2013-2-16,55,35,19,20,12,4,65,42,26,30.16,29.83,20,5,20,0.00
2013-2-17,38,29,17,27,13,5,95,53,35,29.95,29.72,27,10,27,0.00
2013-2-18,35,19,7,21,12,0,94,74,38,30.04,29.92,15,4,15,0.00
2013-2-19,37,19,9,15,6,-1,82,58,39,29.95,29.75,15,5,15,0.00
2013-2-20,31,20,13,17,12,6,92,73,46,29.83,29.75,17,5,17,0.00
2013-2-21,36,21,10,24,10,-2,92,65,40,29.89,29.83,17,5,17,0.00
2013-2-22,39,22,11,14,5,-5,82,49,29,29.92,29.72,19,6,19,0.00
2013-2-23,33,26,22,22,11,4,84,52,38,29.95,29.66,26,8,26,0.00
2013-2-24,34,23,13,13,7,1,69,51,37,30.10,29.95,24,7,24,0.00
2013-2-25,39,25,13,14,8,1,70,49,33,29.98,29.83,17,5,17,0.00
2013-2-26,33,23,13,10,3,-5,58,41,32,30.16,29.89,19,8,19,0.00
2013-2-27,37,23,11,13,3,-7,75,42,30,30.16,30.16,20,7,20,0.00
2013-2-28,43,27,14,15,6,-4,51,40,31,30.25,30.16,16,4,16,0.00
2013-3-1,56,36,20,25,17,2,68,47,28,30.25,30.22,8,4,8,0.00
2013-3-2,56,43,30,25,19,15,62,40,27,30.25,29.95,17,5,17,0.00
2013-3-3,62,36,22,29,16,-2,96,47,25,29.95,29.66,32,10,32,0.00
2013-3-4,24,17,5,6,-1,-9,56,46,36,30.22,29.86,32,11,32,0.00
2013-3-5,36,19,4,12,2,-11,62,48,39,30.19,29.98,17,6,17,0.00
2013-3-6,54,35,20,25,13,4,63,42,31,29.98,29.78,23,6,23,0.00
2013-3-7,46,35,21,16,10,2,56,36,25,30.04,29.83,29,6,29,0.00
2013-3-8,39,30,20,26,18,11,88,61,43,30.01,29.86,16,5,16,0.00
2013-3-9,37,29,20,22,12,4,80,48,36,30.19,29.92,27,10,27,0.00
2013-3-10,49,32,14,20,10,-2,58,40,28,30.19,30.01,11,4,11,0.00
2013-3-11,39,30,18,23,16,8,92,58,29,30.22,30.01,27,8,27,0.00
2013-3-12,44,25,7,20,12,2,88,60,38,30.22,30.07,14,5,14,0.00
2013-3-13,57,44,30,25,20,16,61,39,27,30.19,30.07,18,5,18,0.00
2013-3-14,60,46,37,29,23,18,55,40,28,30.22,30.04,18,5,18,0.00
2013-3-15,58,44,31,31,20,14,90,41,20,30.07,29.98,24,7,24,0.00
2013-3-16,53,37,26,27,21,12,89,54,30,30.07,29.75,24,5,24,0.00
2013-3-17,40,30,21,26,12,-1,96,49,30,29.86,29.57,27,9,27,0.00
2013-3-18,40,24,9,18,2,-7,82,40,20,29.95,29.83,30,8,30,0.00
2013-3-19,40,25,15,18,7,1,87,48,31,30.19,29.92,25,7,25,0.00
2013-3-20,56,34,18,22,12,2,55,41,26,30.16,29.69,22,5,22,0.00
2013-3-21,44,30,16,30,17,2,97,59,32,29.89,29.66,24,7,24,0.00
2013-3-22,33,19,11,18,4,-8,89,56,32,30.04,29.86,19,8,19,0.00
2013-3-23,24,14,-2,11,3,-5,87,65,42,30.16,30.04,15,6,15,0.00
2013-3-24,26,16,5,8,2,-9,80,54,36,30.16,30.13,20,7,20,0.00
2013-3-25,38,23,10,9,2,-5,49,40,30,30.16,30.01,19,9,19,0.00
2013-3-26,54,35,24,19,9,0,52,35,22,30.04,29.98,17,6,17,0.00
2013-3-27,59,39,26,22,15,8,51,39,24,30.07,30.01,17,7,17,0.00
2013-3-28,65,43,30,25,18,12,51,37,19,30.13,30.07,16,7,17,0.00
2013-3-29,60,41,30,36,24,13,96,54,28,30.19,30.10,17,6,20,0.16
2013-3-30,51,40,33,34,23,14,96,54,29,30.22,30.13,23,8,23,0.04
2013-3-31,56,40,25,24,18,11,79,42,27,30.16,30.04,17,7,17,0.00
2013-4-1,58,40,26,24,18,14,73,45,22,30.16,30.10,15,6,15,0.00
2013-4-2,61,45,28,25,19,12,60,37,22,30.13,30.01,16,8,16,0.00
2013-4-3,64,46,33,28,21,15,68,39,24,30.16,30.04,23,6,23,0.00
2013-4-4,65,48,31,31,26,20,75,42,26,30.13,29.92,15,4,17,0.00
2013-4-5,54,46,34,39,26,14,87,47,28,29.92,29.83,23,6,23,0.04
2013-4-6,61,43,31,28,22,16,79,46,26,29.95,29.86,17,5,17,0.00
2013-4-7,60,40,29,36,29,19,97,69,27,29.89,29.66,28,5,28,0.00
2013-4-8,34,18,10,34,15,6,98,87,79,30.16,29.75,17,2,17,0.00
2013-4-9,20,12,4,12,5,-6,81,73,55,30.25,30.13,15,2,15,0.00
2013-4-10,42,25,2,20,11,-8,85,57,38,30.19,29.86,14,5,14,0.00
2013-4-11,48,39,26,33,23,18,96,55,36,29.95,29.83,28,8,28,0.04
2013-4-12,50,34,19,29,18,9,95,54,32,30.04,29.78,23,7,23,0.00
2013-4-13,48,34,25,32,22,8,98,64,41,29.78,29.51,27,8,28,0.00
2013-4-14,35,26,16,21,10,-3,93,54,32,29.89,29.66,28,9,28,0.00
2013-4-15,23,17,12,17,11,5,92,77,51,30.04,29.86,15,6,15,0.00
2013-4-16,26,18,14,15,11,7,91,75,50,30.16,29.98,11,5,11,0.00
2013-4-17,29,17,7,15,8,2,89,69,42,30.19,30.16,20,8,20,0.00
2013-4-18,43,27,2,19,9,-4,76,49,36,30.16,30.10,21,6,21,0.00
2013-4-19,53,37,22,27,19,11,76,48,30,30.10,29.89,13,4,13,0.00
2013-4-20,61,41,28,28,22,18,84,50,27,30.01,29.92,17,5,17,0.00
2013-4-21,37,27,19,29,23,16,97,85,55,30.16,30.01,14,6,14,0.00
2013-4-22,28,17,7,17,9,-6,91,72,41,30.31,30.16,13,6,13,0.00
2013-4-23,48,25,8,26,7,-5,95,48,23,30.28,30.10,17,6,17,0.00
2013-4-24,54,35,19,24,17,8,95,51,26,30.19,29.98,21,6,21,0.00
2013-4-25,62,49,36,20,14,6,33,25,14,30.10,29.95,24,7,24,0.00
2013-4-26,73,52,35,28,19,9,48,29,11,30.19,30.10,18,7,18,0.00
2013-4-27,72,54,40,29,21,14,43,28,14,30.22,29.98,23,7,23,0.00
2013-4-28,63,46,39,38,27,20,84,48,27,30.07,29.89,14,6,14,0.00
2013-4-29,61,43,31,37,26,16,98,56,27,29.89,29.66,39,8,39,0.12
2013-4-30,42,30,24,24,17,8,95,62,34,30.19,29.83,24,5,24,0.00
2013-5-1,46,29,21,20,17,9,92,62,30,30.51,30.19,14,5,14,0.04
2013-5-2,56,38,22,22,15,7,54,39,25,30.54,30.31,20,9,20,0.00
2013-5-3,61,46,32,37,22,13,95,44,24,30.31,30.19,8,5,8,0.04
2013-5-4,53,40,35,40,35,29,96,82,45,30.28,30.22,13,5,13,0.28
2013-5-5,59,45,32,36,30,24,96,59,33,30.28,30.10,17,8,17,0.24
2013-5-6,67,52,36,31,27,22,63,41,24,30.13,30.01,16,7,16,0.24
2013-5-7,74,58,43,34,27,22,45,31,19,30.10,30.01,21,7,21,0.24
2013-5-8,71,54,43,37,31,24,66,44,23,30.22,30.10,15,6,15,0.24
2013-5-9,70,53,42,35,29,20,56,40,23,30.25,30.19,25,8,25,0.24
2013-5-10,68,52,36,43,29,23,80,43,24,30.42,30.25,24,8,24,0.24
2013-5-11,75,54,34,40,29,24,75,41,21,30.42,30.22,24,6,24,0.24
2013-5-12,83,65,50,46,32,26,82,30,17,30.25,30.13,19,7,19,0.24
2013-5-13,87,68,52,44,32,22,68,27,11,30.19,29.95,26,8,26,0.24
2013-5-14,76,59,41,42,35,25,85,41,24,30.07,29.98,28,6,28,0.24
2013-5-15,72,54,37,44,27,19,87,38,23,30.13,29.98,16,6,17,0.24
2013-5-16,66,50,43,48,40,34,93,69,40,30.01,29.95,25,4,25,0.24
2013-5-17,56,48,41,47,43,37,96,85,55,30.01,29.95,11,3,11,0.24
2013-5-18,54,46,40,45,42,37,98,88,57,30.04,29.98,15,6,15,0.35
2013-5-19,45,42,38,42,38,35,94,87,74,30.16,30.04,10,8,15,1.50
2013-5-20,56,46,37,43,38,31,97,76,41,30.22,30.16,15,12,15,0.51
2013-5-21,68,49,33,37,29,22,98,54,23,30.22,30.01,11,9,11,0.24
2013-5-22,66,46,32,46,39,30,97,77,34,30.04,29.95,16,6,16,0.35
2013-5-23,60,50,45,54,45,37,98,84,61,30.01,29.89,17,5,17,0.24
2013-5-24,71,54,39,45,25,11,96,40,12,30.07,29.89,31,10,31,0.24
2013-5-25,68,54,42,38,28,18,68,39,24,30.07,29.98,22,7,22,0.24
2013-5-26,67,53,35,47,37,26,95,56,31,30.10,29.98,22,5,22,0.00
2013-5-27,67,51,41,47,36,24,95,60,25,30.01,29.92,28,5,28,0.00
2013-5-28,66,50,41,44,36,24,96,61,35,29.92,29.83,17,5,17,0.98
2013-5-29,48,43,40,43,40,37,95,87,73,29.89,29.80,17,6,17,1.10
2013-5-30,57,48,39,40,32,24,95,58,36,29.95,29.80,24,8,24,0.00
2013-5-31,58,48,41,41,29,23,95,51,36,30.28,29.92,32,12,32,0.00
2013-6-1,62,50,36,41,35,31,95,59,35,30.31,30.16,17,5,17,0.00
2013-6-2,69,55,42,49,38,28,95,54,33,30.16,29.83,20,5,20,0.04
2013-6-3,66,50,37,47,34,22,98,62,25,30.13,29.86,26,8,26,0.04
2013-6-4,50,40,35,40,36,32,95,84,59,30.31,30.13,18,5,18,0.12
2013-6-5,68,50,32,43,32,25,98,57,27,30.31,30.16,15,6,15,0.04
2013-6-6,75,60,47,47,37,29,79,43,26,30.22,30.16,17,7,17,0.00
2013-6-7,81,63,49,49,39,32,84,44,25,30.16,29.92,22,5,22,0.04
2013-6-8,73,60,48,42,33,28,68,38,22,30.10,29.95,33,10,33,0.04
2013-6-9,86,64,44,44,36,30,60,37,19,30.10,29.92,22,7,22,0.04
2013-6-10,73,60,44,50,40,28,92,49,31,30.04,29.98,17,5,19,0.04
2013-6-11,75,59,48,58,48,39,94,69,32,30.16,29.95,26,6,26,0.24
2013-6-12,70,55,46,55,46,31,95,74,26,30.19,30.10,22,5,22,0.12
2013-6-13,74,57,48,50,41,31,96,57,33,30.13,30.01,37,5,37,0.04
2013-6-14,65,54,37,42,30,20,97,44,26,30.16,30.04,0,0,0,0.00
2013-6-30,88,72,57,56,50,46,94,51,27,30.20,29.76,10,5,12,0.01
2013-7-1,85,70,55,56,49,44,94,50,25,30.26,29.87,14,7,17,0.00
2013-7-2,87,72,56,50,43,37,76,39,18,30.21,29.73,13,6,16,0.00
2013-7-3,88,75,60,48,40,35,59,30,19,29.96,29.58,15,7,21,0.00
2013-7-4,86,66,54,60,50,39,93,60,27,29.95,29.56,19,6,24,2.56
2013-7-5,76,62,53,58,49,42,92,65,38,29.90,29.57,12,4,17,0.20
2013-7-6,72,61,52,58,50,45,87,69,46,29.78,29.65,10,3,12,0.12
2013-7-7,72,61,50,57,50,42,86,69,42,29.84,29.72,27,4,27,0.05
2013-7-8,82,66,57,55,47,35,66,52,23,29.84,29.67,20,6,35,0.01
2013-7-9,73,63,52,52,49,45,91,61,42,29.96,29.81,11,3,16,0.00
2013-7-10,84,68,52,54,46,40,74,47,23,29.94,29.70,9,3,13,0.00
2013-7-11,82,69,61,56,42,36,53,38,23,29.70,29.53,18,4,24,0.00
2013-7-12,80,67,56,54,44,31,77,47,17,29.69,29.60,20,5,26,0.00
2013-7-13,79,64,50,56,46,33,90,55,25,29.97,29.66,18,4,20,0.01
2013-7-14,73,62,52,55,50,46,91,68,38,29.99,29.89,13,4,18,0.01
2013-7-15,83,71,60,53,44,36,62,40,19,29.90,29.66,12,4,17,0.00
2013-7-16,67,56,51,53,47,37,90,73,34,30.05,29.71,16,6,20,0.01
2013-7-17,74,60,51,61,53,49,95,80,56,30.08,29.96,21,3,26,0.09
2013-7-18,80,69,58,55,47,35,76,47,27,29.98,29.83,14,4,18,0.00
2013-7-19,82,68,54,48,38,30,51,35,16,29.91,29.74,14,4,20,0.00
2013-7-20,82,67,56,49,40,31,50,38,26,29.83,29.65,15,5,17,0.00
2013-7-21,81,70,60,45,32,19,41,27,10,29.68,29.60,15,5,20,0.00
2013-7-22,84,70,51,48,36,23,55,31,13,29.77,29.62,12,4,18,0.00
2013-7-23,81,68,56,46,38,27,58,35,14,29.90,29.77,12,4,16,0.00
2013-7-24,82,70,59,50,44,37,61,41,20,29.90,29.70,14,6,20,0.00
2013-7-25,75,65,54,53,48,39,79,56,34,29.96,29.74,20,4,26,0.00
2013-7-26,78,63,46,54,49,43,94,62,33,30.02,29.88,8,3,14,0.00
2013-7-27,79,65,55,53,47,32,75,54,20,29.89,29.67,21,4,28,0.03
2013-7-28,69,61,53,54,49,44,87,65,45,29.77,29.64,17,5,24,0.24
2013-7-29,63,56,51,54,49,44,93,79,64,29.95,29.72,15,3,21,0.04
2013-7-30,68,58,49,54,48,43,88,71,50,30.09,29.90,18,4,22,0.24
2013-7-31,76,63,52,53,46,38,78,57,27,30.10,29.92,14,5,24,0.01
2013-8-1,75,65,54,55,49,42,87,57,38,29.96,29.62,18,6,23,0.00
2013-8-2,69,58,50,55,51,49,98,80,51,29.93,29.66,14,4,18,0.00
2013-8-3,68,59,51,57,52,45,94,77,56,29.96,29.86,9,3,12,0.00
2013-8-4,74,62,52,59,50,46,93,67,41,29.94,29.80,13,4,16,0.01
2013-8-5,77,64,54,54,47,37,80,55,27,29.87,29.68,24,4,28,0.00
2013-8-6,75,63,52,48,42,35,70,47,24,29.88,29.76,17,5,19,0.00
2013-8-7,77,64,53,48,42,28,68,47,16,29.89,29.74,12,4,16,0.00
2013-8-8,71,62,53,52,45,36,65,55,44,29.92,29.80,13,4,15,0.00
2013-8-9,65,58,51,53,50,45,88,74,61,29.96,29.90,12,4,15,0.04
2013-8-10,75,62,52,52,45,39,74,54,34,29.96,29.89,16,4,26,0.00
2013-8-11,77,64,53,44,40,36,60,42,26,29.94,29.85,19,5,33,0.00
2013-8-12,78,66,56,49,40,35,54,39,23,29.95,29.83,22,4,26,0.00
2013-8-13,73,62,54,48,44,39,78,54,35,30.00,29.87,18,5,27,0.15
2013-8-14,78,64,50,47,40,36,70,44,23,29.99,29.84,14,4,17,0.00
2013-8-15,82,68,57,47,39,33,47,36,18,29.89,29.78,15,6,20,0.00
2013-8-16,87,73,62,46,33,18,38,24,11,29.82,29.67,12,4,18,0.00
2013-8-17,81,71,59,48,36,18,42,29,11,29.77,29.68,11,4,14,0.00
2013-8-18,80,69,59,50,42,32,54,37,26,29.80,29.68,16,5,21,0.00
2013-8-19,84,72,62,45,39,36,41,31,18,29.81,29.66,15,5,17,0.00
2013-8-20,81,71,62,43,34,28,36,26,16,29.74,29.66,13,4,18,0.00
2013-8-21,75,67,60,46,38,31,54,36,24,29.90,29.71,11,3,15,0.00
2013-8-22,80,67,52,56,46,42,75,49,31,29.91,29.73,12,4,15,0.05
2013-8-23,83,70,62,51,45,37,58,41,20,29.74,29.57,16,5,24,0.00
2013-8-24,78,67,60,49,45,36,64,48,22,29.78,29.61,10,3,16,0.00
2013-8-25,80,72,63,47,40,32,48,33,22,29.79,29.69,14,6,18,0.00
2013-8-26,81,72,64,46,41,36,42,32,21,29.75,29.67,15,4,22,0.00
2013-8-27,78,69,61,52,44,38,61,41,28,29.80,29.70,13,5,18,0.00
2013-8-28,85,69,60,50,45,41,63,43,22,29.79,29.67,16,4,25,0.00
2013-8-29,80,67,57,53,46,39,67,48,31,29.89,29.79,22,6,24,0.00
2013-8-30,83,69,54,54,44,29,80,44,14,29.88,29.73,24,5,41,0.12
2013-8-31,73,65,57,44,41,38,54,43,31,29.91,29.75,11,4,17,0.00
2013-9-1,81,64,47,42,38,32,69,41,20,29.93,29.81,15,4,19,0.19
2013-9-2,78,67,62,57,42,31,84,45,23,29.83,29.68,15,5,25,0.02
2013-9-3,81,70,59,53,47,42,68,46,27,29.85,29.73,14,4,16,0.00
2013-9-4,80,68,60,57,51,46,75,55,36,29.88,29.82,12,4,19,0.00
2013-9-5,84,71,62,56,51,46,72,49,30,29.89,29.71,16,6,18,0.00
2013-9-6,83,69,58,54,48,44,67,48,27,29.81,29.73,20,6,26,0.01
2013-9-7,76,67,57,57,49,42,89,54,36,29.83,29.74,16,3,24,0.00
2013-9-8,72,60,54,60,50,43,88,71,50,30.03,29.65,17,3,21,0.08
2013-9-9,67,57,47,49,44,39,92,64,36,29.93,29.73,17,3,17,0.00
2013-9-10,71,60,49,44,41,37,65,51,35,30.00,29.92,14,5,16,0.00
2013-9-11,72,62,54,45,41,38,65,47,31,30.11,29.98,13,5,18,0.00
2013-9-12,68,59,48,50,45,41,77,59,39,30.11,29.90,19,5,25,0.00
2013-9-13,69,58,50,51,47,42,90,69,37,29.90,29.69,7,2,11,0.09
2013-9-14,59,55,52,53,50,46,95,85,61,29.99,29.72,13,4,20,1.37
2013-9-15,63,55,49,56,51,48,98,89,65,30.05,29.88,17,4,24,0.39
2013-9-16,73,60,49,57,50,41,98,73,44,29.88,29.66,13,3,17,0.00
2013-9-17,71,60,51,51,44,27,92,58,20,29.69,29.43,27,6,40,0.06
2013-9-18,62,51,40,46,37,24,92,62,27,29.86,29.47,20,5,27,0.00
2013-9-19,54,45,37,39,34,30,77,65,46,30.10,29.86,12,3,15,0.00
2013-9-20,64,51,40,38,30,19,68,45,24,30.09,29.75,15,6,21,0.00
2013-9-21,77,62,51,38,29,18,43,30,16,29.75,29.42,24,5,25,0.00
2013-9-22,65,58,51,43,36,29,62,45,28,29.47,29.32,17,4,22,0.00
2013-9-23,61,52,42,40,33,21,84,51,22,29.82,29.47,11,2,17,0.00
2013-9-24,63,54,40,38,31,26,65,42,28,29.83,29.50,38,9,47,0.00
2013-9-25,57,42,38,39,36,25,97,80,30,29.63,29.48,14,2,21,0.09
2013-9-26,38,34,30,36,32,28,98,95,85,30.03,29.62,14,4,19,0.10
2013-9-27,42,34,30,35,31,27,98,90,73,30.03,29.96,6,2,10,0.20
2013-9-28,55,45,29,39,31,27,96,62,37,29.99,29.81,21,4,30,0.01
2013-9-29,60,55,46,35,31,28,65,41,34,29.81,29.48,29,9,37,0.00
2013-9-30,57,48,39,43,38,26,89,70,43,29.77,29.37,24,6,33,0.05
2013-10-1,58,46,34,35,28,19,75,53,30,29.89,29.77,17,4,23,0.00
2013-10-2,45,40,33,36,32,28,93,72,58,30.00,29.88,10,2,15,0.00
2013-10-3,39,31,27,34,29,25,97,92,77,30.35,29.81,17,6,22,0.16
2013-10-4,30,27,23,26,22,14,96,84,64,30.56,30.34,17,7,22,0.00
2013-10-5,51,36,22,31,22,12,81,59,30,30.48,30.30,11,3,15,0.11
2013-10-6,63,47,36,40,30,20,78,53,25,30.30,30.02,14,4,18,0.00
2013-10-7,69,55,44,42,23,7,72,32,11,30.01,29.58,18,6,26,0.00
2013-10-8,52,43,35,33,28,22,83,57,32,29.90,29.58,11,3,14,0.00
2013-10-9,45,38,32,37,31,26,93,75,63,30.02,29.87,12,3,15,0.00
2013-10-10,48,41,32,38,35,30,95,79,62,29.87,29.67,18,2,19,0.02
2013-10-11,45,37,28,38,26,17,97,69,36,30.05,29.71,20,7,24,0.06
2013-10-12,45,35,27,32,26,16,90,70,53,30.15,30.05,15,3,22,0.00
2013-10-13,34,31,29,32,30,26,98,93,83,30.20,30.09,12,3,17,0.01
2013-10-14,32,30,29,30,27,23,96,89,75,30.48,30.19,15,7,21,0.00
2013-10-15,39,31,24,27,22,16,86,71,49,30.49,30.21,11,3,15,0.03
2013-10-16,46,34,26,30,20,10,95,60,25,30.22,30.08,18,3,19,0.00
2013-10-17,35,30,26,31,27,23,96,89,62,30.29,30.17,20,4,26,0.06
2013-10-18,47,35,27,26,20,15,89,57,34,30.29,30.08,15,4,20,0.06
2013-10-19,50,41,31,34,26,21,87,55,38,30.08,29.90,15,3,22,0.05
2013-10-20,46,39,33,33,29,25,95,69,46,30.07,29.97,17,7,24,0.26
2013-10-21,56,45,36,34,29,26,77,55,36,30.10,30.03,16,3,18,0.00
2013-10-22,55,45,37,37,31,27,76,58,41,30.12,30.03,11,3,13,0.00
2013-10-23,53,43,34,35,29,22,88,58,44,30.18,30.09,15,4,17,0.00
2013-10-24,52,42,31,39,32,25,95,67,48,30.22,30.11,13,4,16,0.00
2013-10-25,60,49,40,35,27,22,61,42,28,30.19,30.09,15,6,18,0.00
2013-10-26,56,48,40,34,24,16,59,40,29,30.19,29.95,14,5,18,0.00
2013-10-27,53,46,29,30,24,19,92,45,29,29.95,29.70,11,4,18,0.00
2013-10-28,29,20,16,27,19,14,95,93,89,30.23,29.95,14,5,19,0.00
2013-10-29,27,19,15,26,17,13,98,93,91,30.24,30.05,2,0,4,0.00
2013-10-30,40,32,24,35,28,22,98,85,71,30.05,29.89,13,2,14,0.05
2013-10-31,46,37,29,31,24,13,81,60,30,29.97,29.79,24,4,35,0.00
2013-11-1,44,37,32,23,20,18,65,51,38,30.15,29.98,14,5,20,0.00
2013-11-2,56,43,30,29,22,18,66,44,23,30.12,29.48,24,6,29,0.00
2013-11-3,48,30,23,31,20,6,97,69,28,29.92,29.48,17,2,25,0.00
2013-11-4,28,23,16,21,14,6,92,70,46,30.20,29.92,11,2,12,0.00
2013-11-5,32,24,15,20,10,2,77,55,41,30.26,30.18,11,3,14,0.00
2013-11-6,38,32,24,24,18,11,79,58,39,30.36,30.17,9,2,12,0.00
2013-11-7,49,35,25,32,24,18,76,63,43,30.37,29.71,21,4,30,0.00
2013-11-8,44,36,28,33,24,16,96,61,38,30.01,29.67,15,2,27,0.01
2013-11-9,38,32,27,25,22,20,84,69,52,30.23,30.01,9,2,13,0.00
2013-11-10,59,41,22,32,27,21,95,59,29,30.19,30.05,13,3,15,0.00
2013-11-11,38,29,20,34,26,19,97,91,76,30.59,30.14,8,1,11,0.00
2013-11-12,54,41,28,32,26,21,88,60,28,30.59,30.24,12,5,17,0.00
2013-11-13,54,45,28,31,26,20,83,48,26,30.24,29.92,12,3,16,0.00
2013-11-14,42,34,29,24,19,13,79,55,39,30.03,29.72,10,2,12,0.00
2013-11-15,38,34,28,23,16,11,65,49,34,29.72,29.35,16,4,20,0.00
2013-11-16,41,33,24,23,15,5,89,49,30,29.49,29.23,24,5,31,0.00
2013-11-17,36,28,20,12,8,2,59,44,31,30.03,29.50,14,3,22,0.00
2013-11-18,52,40,24,19,14,11,61,37,21,30.03,29.74,16,4,27,0.00
2013-11-19,51,44,36,25,21,15,54,40,31,29.74,29.52,21,6,30,0.00
2013-11-20,42,16,3,26,10,0,93,80,47,30.44,29.57,14,4,21,0.00
2013-11-21,20,10,3,15,4,0,93,78,55,30.80,30.44,13,1,14,0.00
2013-11-22,31,20,13,12,5,-1,70,51,25,30.81,30.74,12,3,15,0.00
2013-11-23,34,26,17,14,9,5,68,51,28,30.76,30.34,11,4,19,0.00
2013-11-24,47,38,30,17,11,4,57,33,17,30.33,30.08,18,4,23,0.00
2013-11-25,38,32,25,21,19,14,76,58,38,30.40,30.15,6,1,7,0.00
2013-11-26,41,34,26,24,20,13,72,55,35,30.42,30.14,11,4,15,0.00
2013-11-27,46,38,27,24,20,17,73,50,35,30.14,30.04,9,2,11,0.00
2013-11-28,42,35,25,26,20,16,71,57,39,30.12,30.06,10,3,14,0.00
2013-11-29,50,41,36,25,19,16,49,40,27,30.10,29.99,15,5,17,0.00
2013-11-30,43,38,32,25,22,19,66,54,41,30.12,30.04,9,3,12,0.00
2013-12-1,43,38,32,28,23,20,65,55,43,30.06,29.66,20,3,22,0.00
2013-12-2,46,34,14,33,26,12,96,76,38,29.67,29.39,22,4,32,0.00
2013-12-3,14,4,-2,12,1,-6,91,87,84,30.37,29.66,18,7,23,0.00
2013-12-4,-1,-5,-8,-5,-9,-12,86,85,82,30.57,30.37,9,2,13,0.00
2013-12-5,3,-6,-12,-1,-12,-18,86,76,67,30.65,30.52,10,2,12,0.00
2013-12-6,-10,-18,-25,-16,-23,-30,84,79,71,30.86,30.63,2,0,4,0.00
2013-12-7,-16,-21,-27,-20,-26,-32,83,79,76,30.86,30.59,1,0,4,0.00
2013-12-8,8,-1,-15,2,-6,-19,86,79,62,30.58,30.45,10,1,11,0.00
2013-12-9,25,9,-7,10,-2,-14,75,62,42,30.45,30.30,10,2,14,0.00
2013-12-10,27,17,2,12,6,-1,89,62,38,30.39,30.10,14,3,20,0.00
2013-12-11,32,21,7,15,6,-1,77,55,25,30.46,30.36,16,5,17,0.00
2013-12-12,41,33,25,20,16,13,70,50,36,30.37,29.95,16,4,25,0.00
2013-12-13,37,28,21,20,15,12,73,58,39,30.27,29.92,13,3,18,0.00
2013-12-14,42,30,21,22,15,11,66,55,36,30.30,30.14,18,4,18,0.00
2013-12-15,52,43,33,21,15,7,54,33,18,30.15,29.94,20,6,24,0.00
2013-12-16,48,42,34,21,14,8,53,33,23,30.17,29.93,23,6,34,0.00
2013-12-17,57,43,29,21,17,11,58,37,18,30.18,29.78,17,4,28,0.00
2013-12-18,48,40,23,23,18,13,95,43,25,29.78,29.58,20,3,29,0.00
2013-12-19,23,8,2,21,5,-1,94,87,63,30.19,29.63,12,3,17,0.00
2013-12-20,27,18,6,9,2,-7,82,52,24,30.18,29.67,15,2,18,0.00
2013-12-21,25,21,17,18,13,2,92,73,38,30.07,29.67,14,2,21,0.00
2013-12-22,20,13,7,19,10,4,94,89,84,30.43,30.05,12,2,16,0.00
2013-12-23,42,27,7,29,19,5,93,73,47,30.44,29.93,26,4,35,0.08
2013-12-24,40,32,29,30,18,9,94,60,38,30.16,30.00,30,15,43,0.00
2013-12-28,10,9,7,7,6,5,89,88,86,30.22,30.18,2,1,14,0.00